[[{"header":{"parameterUnit":"m.s-1","parameterCategory":1,"la1":30.2991,"la2":30.254,"lo1":-89.0895,"lo2":-89.0444,"dy":0.0017,"dx":0.0017,"nx":28,"ny":28,"refTime":"2024-04-27T21:00:00:Z","depth":0,"parameterNumber":2,"parameterNumberName":"U-component_of_WINDS"},"data":[0,0,0,0,0,0,0,0,0,0,0,0,0,0,0,0,0,0,0,0,0,0,0,0,0,0,0,0,0,0,0,0,0,0,0,0,0,0,0,0,0,0,0,0,0,0,0,0,0,0,0,0,0,0,0,0,0,0,-8.0939,-8.094,0,-8.1043,-8.1044,-8.1045,-8.097,-8.0967,-8.0964,-8.0961,-8.1061,-8.1067,-8.1073,0,0,0,0,0,0,0,0,0,0,0,0,0,-8.0673,-8.0678,-8.0939,-8.094,-8.0942,-8.1043,-8.1044,-8.1045,-8.0971,-8.0967,-8.0963,-8.0959,-8.1059,-8.1066,-8.1073,0,0,0,0,0,0,0,0,0,0,0,0,0,-8.0783,-8.068,-8.0939,-8.0917,-8.0916,-8.1042,-8.1044,-8.1046,-8.0972,-8.0967,-8.0962,-8.0957,-8.1057,-8.1066,-8.1074,-8.1226,0,0,-8.1101,-8.1104,0,0,0,0,0,0,0,0,-8.0777,-8.0793,-8.0919,-8.0919,-8.0918,-8.0989,-8.0987,-8.1106,-8.0973,-8.095,-8.096,-8.0955,-8.1041,-8.105,-8.1081,-8.1231,-8.1235,-8.1101,-8.1107,-8.111,-8.1113,0,0,0,0,0,0,0,-8.077,-8.0788,-8.098,-8.0921,-8.092,-8.09,-8.0911,-8.1009,-8.1022,-8.0952,-8.0947,-8.096,-8.104,-8.1072,-8.1082,-8.1237,-8.1101,-8.1109,-8.1114,-8.1117,-8.1518,-8.1523,0,0,0,0,0,0,-8.0765,-8.0782,-8.0977,-8.0983,-8.0834,-8.0909,-8.0921,-8.0971,-8.1021,-8.1024,-8.0964,-8.0956,-8.106,-8.1072,-8.1086,-8.1266,-8.111,-8.1118,-8.1123,-8.1512,-8.1519,-8.1525,0,0,0,0,0,0,-8.0759,-8.0783,-8.0972,-8.0882,-8.0904,-8.0919,-8.0976,-8.0975,-8.1008,-8.103,-8.1032,-8.0996,-8.1057,-8.1074,-8.1192,-8.1268,-8.1122,-8.113,-8.1506,-8.1514,-8.1522,-8.1629,0,0,0,0,0,0,-8.0752,-8.0781,-8.084,-8.0883,-8.0909,-8.1079,-8.0981,-8.0981,-8.1024,-8.1014,-8.106,-8.1063,-8.1054,-8.118,-8.1201,-8.1278,-8.1137,-8.1499,-8.1509,-8.1519,-8.1618,-8.1639,-8.1658,0,0,0,0,0,-8.0743,-8.0865,-8.0843,-8.0867,-8.0983,-8.1083,-8.1098,-8.1087,-8.1031,-8.1089,-8.1103,-8.1061,-8.1258,-8.1193,-8.1216,-8.1296,-8.1494,-8.1506,-8.1518,-8.1609,-8.1635,-8.1657,0,0,0,0,0,0,-8.0827,-8.087,-8.0846,-8.0986,-8.1032,-8.107,-8.1143,-8.1115,-8.1175,-8.1163,-8.1146,-8.1157,-8.1282,-8.1301,-8.1228,-8.1446,-8.1367,-8.1384,-8.1428,-8.1453,-8.1472,-8.1463,-8.1144,0,0,0,0,0,-8.0862,-8.0941,-8.0974,-8.1094,-8.1119,-8.1128,-8.1171,-8.1159,-8.1205,-8.1223,-8.1246,-8.129,-8.1362,-8.1409,-8.1476,-8.1623,-8.163,-8.169,-8.1709,-8.1725,-8.1739,-8.1817,-8.1843,-8.1565,-8.1565,-8.1565,0,0,-8.0935,-8.0968,-8.1018,-8.1112,-8.1146,-8.1227,-8.1144,-8.1233,-8.1292,-8.1235,-8.1348,-8.1368,-8.1417,-8.155,-8.1609,-8.157,-8.1819,-8.1741,-8.1754,-8.1758,-8.1832,-8.1858,-8.1882,-8.1573,-8.1572,-8.157,0,0,-8.1107,-8.1142,-8.1245,-8.1282,-8.1336,-8.1341,-8.1367,-8.1411,-8.1421,-8.1536,-8.1495,-8.1566,-8.169,-8.1726,-8.176,-8.1952,-8.1914,-8.1974,-8.2075,-8.2151,-8.2173,-8.2192,-8.2257,-8.2281,-8.1989,-8.1989,-8.1989,0,-8.119,-8.1311,-8.1302,-8.1394,-8.1436,-8.1393,-8.1496,-8.1532,-8.1604,-8.1633,-8.1589,-8.1745,-8.1775,-8.1915,-8.1962,-8.1993,-8.2019,-8.1966,-8.2171,-8.219,-8.2208,-8.227,-8.2295,-8.1996,-8.1995,-8.1994,-8.1994,0,-8.1409,-8.1494,-8.1571,-8.1644,-8.1695,-8.1793,-8.1798,-8.1851,-8.1836,-8.1846,-8.1963,-8.1998,-8.2072,-8.2105,-8.2091,-8.2244,-8.2218,-8.2173,-8.2092,-8.2241,-8.2299,-8.2323,-8.2005,-8.2003,-8.2001,-8.1999,0,0,-8.1632,-8.1702,-8.173,-8.1763,-8.182,-8.1885,-8.1982,-8.2056,-8.21,-8.2153,-8.2231,-8.234,-8.2299,-8.2339,-8.2329,-8.2396,-8.2543,-8.2343,-8.2344,-8.2376,-8.2712,-8.2742,-8.277,-8.2521,-8.2526,-8.2529,-8.2707,0,-8.1806,-8.1974,-8.197,-8.2126,-8.2204,-8.2166,-8.225,-8.2293,-8.2307,-8.2374,-8.2388,-8.2464,-8.2406,-8.243,-8.2495,-8.2511,-8.2609,-8.2499,-8.2591,-8.2594,-8.2576,-8.2801,-8.2833,-8.2998,-8.2729,-8.2733,-8.2736,0,-8.2029,-8.2091,-8.2256,-8.2303,-8.2335,-8.2411,-8.2478,-8.2544,-8.2593,-8.2598,-8.2645,-8.2625,-8.2721,-8.2642,-8.2773,-8.2699,-8.2737,-8.2751,-8.2757,-8.2761,-8.2671,-8.2807,-8.3051,-8.3074,-8.2772,-8.2769,-8.2767,0,-8.2172,-8.2297,-8.2411,-8.2441,-8.25,-8.2553,-8.258,-8.2625,-8.267,-8.273,-8.2759,-8.2829,-8.2866,-8.292,-8.2919,-8.2862,-8.3052,-8.2973,-8.3057,-8.3057,-8.3094,-8.3091,-8.3343,-8.3126,-8.3126,-8.3125,-8.3125,0,-8.2363,-8.2464,-8.2476,-8.2546,-8.2659,-8.2654,-8.2765,-8.2786,-8.2827,-8.2899,-8.2872,-8.294,-8.2937,-8.3006,-8.3007,-8.3114,-8.3132,-8.3137,-8.3135,-8.3138,-8.3136,-8.3159,-8.3146,-8.3132,-8.3131,-8.3129,-8.3128,0,-8.2539,-8.2552,-8.2673,-8.2721,-8.2735,-8.2815,-8.2855,-8.2921,-8.2934,-8.3026,-8.3047,-8.3066,-8.3146,-8.3153,-8.3245,-8.3245,-8.3375,-8.3363,-8.3359,-8.3355,-8.3437,-8.3428,-8.3709,-8.3745,-8.3509,-8.3511,-8.3513,0,-8.2658,-8.2736,-8.2792,-8.284,-8.287,-8.2947,-8.2994,-8.2993,-8.3043,-8.3107,-8.3165,-8.3243,-8.3305,-8.3435,-8.3456,-8.3527,-8.3513,-8.3607,-8.3523,-8.3523,-8.3511,-8.3504,-8.3511,-8.3622,-8.3624,-8.3626,-8.3628,0,-8.2867,-8.2871,-8.294,-8.3013,-8.307,-8.3126,-8.3179,-8.3219,-8.3225,-8.3282,-8.3365,-8.3414,-8.351,-8.3587,-8.3657,-8.3683,-8.3656,-8.3656,-8.3678,-8.3678,-8.3672,-8.3673,-8.3399,-8.3647,-8.3646,-8.3644,-8.3643,-8.3642,-8.3016,-8.3083,-8.3134,-8.3212,-8.3253,-8.3303,-8.3367,-8.339,-8.3459,-8.3538,-8.3534,-8.3625,-8.3674,-8.3765,-8.3798,-8.3868,-8.3836,-8.3869,-8.3877,-8.3884,-8.3891,-8.3665,-8.3881,-8.3881,-8.388,-8.388,-8.3879,0,-8.3221,-8.3253,-8.3325,-8.3401,-8.3463,-8.3437,-8.3494,-8.3547,-8.3628,-8.3677,-8.374,-8.3835,-8.3911,-8.394,-8.4013,-8.4064,-8.4054,-8.4083,-8.4077,-8.4083,-8.3917,-8.3889,-8.409,-8.409,-8.409,-8.409,-8.409,-8.409,-8.3334,-8.3446,-8.3456,-8.3587,-8.3617,-8.3708,-8.3743,-8.3789,-8.3828,-8.3936,-8.4,-8.4019,-8.406,-8.4137,-8.4205,-8.4212,-8.4238,-8.4272,-8.4273,-8.4116,-8.4095,-8.4074,-8.4047,-8.4279,-8.428,-8.4433,-8.4434,-8.4435]},{"header":{"parameterUnit":"m.s-1","parameterCategory":1,"la1":30.2991,"la2":30.254,"lo1":-89.0895,"lo2":-89.0444,"dy":0.0017,"dx":0.0017,"nx":28,"ny":28,"refTime":"2024-04-27T21:00:00:Z","depth":0,"parameterNumber":3,"parameterNumberName":"V-component_of_WINDS"},"data":[0,0,0,0,0,0,0,0,0,0,0,0,0,0,0,0,0,0,0,0,0,0,0,0,0,0,0,0,0,0,0,0,0,0,0,0,0,0,0,0,0,0,0,0,0,0,0,0,0,0,0,0,0,0,0,0,0,0,3.4407,3.4407,0,3.4446,3.4446,3.4447,3.4458,3.4458,3.4457,3.4457,3.4494,3.4495,3.4497,0,0,0,0,0,0,0,0,0,0,0,0,0,3.4341,3.4342,3.4407,3.4407,3.4408,3.4446,3.4446,3.4447,3.4458,3.4457,3.4457,3.4457,3.4494,3.4495,3.4497,0,0,0,0,0,0,0,0,0,0,0,0,0,3.4373,3.4342,3.4407,3.4418,3.4419,3.4446,3.4446,3.4447,3.4458,3.4457,3.4457,3.4457,3.4493,3.4495,3.4497,3.4514,0,0,3.4502,3.4503,0,0,0,0,0,0,0,0,3.4371,3.4376,3.4416,3.4417,3.4419,3.4447,3.4437,3.4469,3.4458,3.4443,3.4457,3.4457,3.4478,3.4481,3.4489,3.4516,3.4517,3.4502,3.4504,3.4504,3.4505,0,0,0,0,0,0,0,3.4369,3.4374,3.4422,3.4416,3.4418,3.4421,3.4425,3.4443,3.4462,3.4444,3.4445,3.445,3.4479,3.4488,3.449,3.4518,3.4502,3.4504,3.4505,3.4506,3.4562,3.4563,0,0,0,0,0,0,3.4365,3.4372,3.4421,3.4423,3.4394,3.4422,3.4427,3.4438,3.4462,3.4465,3.445,3.445,3.4485,3.4488,3.4492,3.4514,3.4504,3.4506,3.4507,3.4562,3.4563,3.4563,0,0,0,0,0,0,3.4364,3.4369,3.4419,3.4398,3.4405,3.4424,3.4436,3.4439,3.4447,3.4466,3.4469,3.4455,3.4485,3.4489,3.4509,3.4516,3.4507,3.4508,3.4561,3.4562,3.4563,3.4559,0,0,0,0,0,0,3.4362,3.4369,3.4376,3.4398,3.4406,3.4436,3.4436,3.444,3.4451,3.4451,3.4472,3.4475,3.4485,3.4506,3.4511,3.4518,3.451,3.4561,3.4562,3.4563,3.4559,3.456,3.4561,0,0,0,0,0,3.4359,3.4372,3.4376,3.4382,3.4415,3.4437,3.4441,3.4453,3.4451,3.4458,3.4471,3.4474,3.4515,3.4508,3.4513,3.4521,3.4561,3.4562,3.4563,3.4559,3.456,3.4561,0,0,0,0,0,0,3.4348,3.4375,3.438,3.44,3.4416,3.4438,3.4447,3.4453,3.4469,3.4469,3.4482,3.4487,3.4506,3.4516,3.4508,3.454,3.4538,3.454,3.4533,3.4534,3.4535,3.4532,3.4511,0,0,0,0,0,3.4348,3.4364,3.4387,3.4403,3.4411,3.4428,3.4438,3.4446,3.4463,3.4469,3.4483,3.4498,3.4515,3.4525,3.4541,3.4561,3.4566,3.4569,3.457,3.457,3.4572,3.4584,3.4586,3.4566,3.4566,3.4566,0,0,3.4348,3.4365,3.4374,3.4401,3.4414,3.4431,3.4433,3.445,3.4462,3.4471,3.4491,3.4502,3.4521,3.4541,3.4551,3.455,3.4579,3.4572,3.4572,3.4573,3.4585,3.4587,3.4589,3.4567,3.4567,3.4567,0,0,3.4356,3.437,3.4386,3.44,3.4421,3.4433,3.4437,3.4459,3.4467,3.4488,3.4495,3.451,3.4538,3.4551,3.4561,3.4578,3.4582,3.4582,3.4586,3.4598,3.46,3.4601,3.4608,3.461,3.4584,3.4584,3.4584,0,3.4352,3.4378,3.4392,3.441,3.4422,3.4433,3.4449,3.4462,3.4486,3.4494,3.4493,3.453,3.4543,3.4567,3.4572,3.4579,3.4584,3.4579,3.4599,3.46,3.4602,3.4608,3.461,3.4584,3.4584,3.4584,3.4584,0,3.4373,3.4391,3.4401,3.4427,3.444,3.4456,3.4473,3.4485,3.4493,3.4505,3.4527,3.4543,3.4563,3.457,3.4577,3.4596,3.4595,3.4596,3.4594,3.4603,3.4609,3.4612,3.4584,3.4584,3.4584,3.4584,0,0,3.4373,3.4409,3.4412,3.4425,3.445,3.4464,3.4482,3.4503,3.4513,3.453,3.4545,3.457,3.4572,3.4584,3.4593,3.4603,3.4616,3.4604,3.4604,3.4606,3.4639,3.4638,3.464,3.462,3.462,3.4621,3.4638,0,3.4384,3.4417,3.4432,3.4458,3.4475,3.4487,3.4502,3.452,3.4532,3.4548,3.4561,3.4579,3.458,3.4587,3.4599,3.4612,3.4623,3.4611,3.4634,3.4634,3.4628,3.4643,3.4641,3.4656,3.464,3.464,3.4641,0,3.4401,3.4421,3.4449,3.4475,3.4482,3.4496,3.4518,3.4533,3.4553,3.4562,3.4576,3.4585,3.4604,3.4602,3.4628,3.462,3.463,3.4638,3.4639,3.4641,3.4637,3.4645,3.4661,3.4663,3.4644,3.4644,3.4644,0,3.4399,3.4432,3.4454,3.4464,3.4494,3.4504,3.4516,3.4537,3.4549,3.4568,3.4577,3.4597,3.4608,3.4624,3.4638,3.4635,3.4663,3.4662,3.4671,3.467,3.4675,3.4674,3.4693,3.4682,3.4682,3.4682,3.4682,0,3.441,3.4426,3.4453,3.4466,3.4486,3.4503,3.4522,3.4535,3.4554,3.457,3.4581,3.4596,3.4614,3.4631,3.4642,3.4663,3.4668,3.4675,3.4678,3.4674,3.4673,3.468,3.4679,3.4683,3.4683,3.4683,3.4683,0,3.441,3.4428,3.4453,3.448,3.4488,3.4501,3.4524,3.4538,3.4552,3.4572,3.4577,3.4599,3.4619,3.4636,3.4662,3.467,3.4692,3.4695,3.4685,3.4687,3.4695,3.4694,3.4717,3.4722,3.4709,3.4709,3.4709,0,3.4415,3.4429,3.4459,3.4471,3.4484,3.4504,3.4517,3.4535,3.4549,3.4575,3.4585,3.4607,3.4625,3.4658,3.4675,3.4696,3.47,3.4707,3.4703,3.4699,3.47,3.4699,3.47,3.4707,3.4707,3.4707,3.4707,0,3.4423,3.4432,3.4452,3.4476,3.4492,3.4512,3.4531,3.454,3.4562,3.4576,3.4599,3.4613,3.4642,3.4664,3.4687,3.4699,3.4707,3.4709,3.4712,3.4707,3.4701,3.4705,3.4686,3.4707,3.4707,3.4707,3.4707,3.4707,3.4426,3.4439,3.4463,3.4485,3.4502,3.4521,3.4535,3.4552,3.4571,3.4597,3.4606,3.4629,3.4651,3.4683,3.4696,3.4714,3.4715,3.4719,3.472,3.4721,3.4721,3.4699,3.4718,3.4718,3.4718,3.4718,3.4718,0,3.4435,3.4452,3.4472,3.45,3.4518,3.4525,3.4547,3.4561,3.4582,3.4602,3.4621,3.4647,3.4669,3.4689,3.4712,3.4723,3.4727,3.4728,3.4727,3.473,3.4719,3.4714,3.4724,3.4724,3.4724,3.4724,3.4724,3.4724,3.4441,3.4465,3.4477,3.451,3.4526,3.455,3.4562,3.4579,3.4596,3.4625,3.4644,3.4657,3.4678,3.4702,3.4723,3.4728,3.4736,3.4736,3.4742,3.4731,3.4731,3.473,3.4725,3.4738,3.4738,3.4752,3.4752,3.4752]}]]